ONEWEB-0012 (44057 NORAD) Tracking and Keplerian Element Data

This shows tracking and keplerian element data for the satellite.

Feedback or suggestion? Click here.




ElementValue
Catalog44057
NameONEWEB-0012
Epoch Orbit395
Epoch Day87.82357297
Epoch Year2019
RAAN64.0733
Inclination87.7724
Eccentricity0.0018048
Argument of Perigee161.4774
Mean Anonmoly198.7048
Mean Motion13.69325752
Decay Rate7E-07
L11 44057U 19010A 19087.82357297 .00000070 00000-0 63062-4 0 9997
L22 44057 87.7724 64.0733 0018048 161.4774 198.7048 13.69325752 3958

Live tracking and technical data element details for ONEWEB-0012 (NORAD 44057). ONEWEB-0012 can be tracked NOW for your location showing map with azimuth and elevation plus other details from your city location.

Track the satellite on the map from your city or location and see movement details for azimuth, elevation, latitude, longitude, range, height, and movement on the map or in text.







IsCatalogInMostPopularTable: catalog: 44057, numindb: 185
Update: records affected: 1



GetName: 44057 ONEWEB-0012

Hit Count: updated at: Sat, 20 Jul 2019 21:48:45 GMT